Wind_Speed
12 11 11 11 11 11 11 11 11 12 12 12 12 12 12 12 12 11 12 12 11 12 12 12 12 12 12 12 12 12 13 13 13 12 12 12 12 12 12 12 13 13 13
12 11 10 10 11 10 10 11 12 12 12 12 13 13 13 13 13 12 13 13 13 13 13 13 12 12 12 12 12 13 13 14 14 14 14 14 14 14 14 14 14 15 15
11 11 11 10 11 12 11 12 12 12 12 13 13 14 14 15 14 14 14 14 15 15 14 13 13 13 13 13 14 14 15 15 15 16 16 16 16 16 16 16 16 16 17
12 12 12 12 12 12 13 13 14 14 13 14 14 14 15 15 15 15 15 15 15 15 15 15 14 14 14 15 16 16 17 17 17 17 18 17 17 17 17 17 18 18 18
12 13 12 13 13 14 14 14 15 15 15 15 16 15 15 15 15 16 16 16 16 16 16 16 15 15 16 16 16 17 17 17 18 18 19 19 19 19 20 20 19 20 20
14 13 13 13 14 14 14 14 15 15 15 16 16 17 17 17 17 16 16 15 16 16 16 17 17 17 17 17 17 18 18 18 19 20 20 21 21 21 21 21 22 22 23
13 14 14 14 14 13 14 14 14 15 15 15 16 17 17 17 16 16 16 16 17 17 18 18 18 18 18 18 19 19 19 20 21 21 22 22 22 22 22 23 23 24 25
15 15 15 15 15 15 15 15 15 14 15 16 17 17 16 17 17 18 19 18 18 18 18 19 19 19 19 20 20 20 20 21 22 23 23 22 23 24 25 25 26 26 27
15 15 15 15 15 14 15 16 16 16 16 16 17 17 17 18 18 19 20 20 20 20 20 20 21 21 21 22 22 22 23 23 23 23 23 23 25 26 27 28 28 29 29
14 14 14 14 14 15 15 16 16 16 17 17 17 17 18 18 19 20 20 21 21 21 22 22 22 22 23 23 23 23 24 23 24 24 25 26 27 28 29 31 32 32 32
14 14 15 15 15 15 15 16 17 17 17 17 17 18 18 19 20 20 21 21 22 22 23 23 23 23 23 24 24 24 24 25 26 26 27 29 30 31 33 33 34 34 35
15 15 14 14 14 15 16 17 18 17 17 17 18 18 19 20 21 22 23 23 23 23 23 23 23 24 24 24 25 25 26 27 29 30 31 32 33 34 35 37 37 37 38
15 15 15 15 15 16 17 17 18 18 18 18 18 18 19 19 20 21 22 23 24 24 25 24 24 24 25 25 26 28 29 31 31 33 34 35 36 37 37 38 39 39 40
17 17 17 17 18 18 18 18 19 19 19 20 20 20 21 21 21 21 22 24 24 25 25 26 27 27 27 28 29 30 32 33 34 35 36 36 37 38 40 40 40 42 43
18 18 18 19 19 19 19 19 19 20 20 21 21 21 22 22 22 23 24 25 25 26 26 27 27 28 29 31 32 33 34 35 36 37 37 38 39 40 42 42 43 44 45
19 19 19 19 19 19 20 20 20 21 22 22 23 24 25 25 26 26 26 26 26 27 27 28 29 30 32 33 34 35 36 37 38 39 40 41 42 43 44 45 46 47 47
19 19 19 19 19 20 20 20 21 21 22 22 23 24 25 26 25 26 26 26 26 27 29 30 31 32 33 34 36 37 38 39 40 40 41 42 43 44 46 47 47 47 48
18 19 20 20 20 20 20 20 21 21 22 22 22 23 23 23 24 25 26 27 28 29 30 30 32 33 34 36 37 38 39 40 40 41 42 43 44 45 46 47 48 48 48
19 20 21 21 20 20 20 21 21 21 22 22 23 23 24 24 25 25 26 27 28 30 31 32 33 34 36 37 38 39 40 40 41 42 43 44 45 46 47 48 48 49 49
19 20 20 21 22 22 21 22 22 22 23 23 23 24 25 26 27 27 27 28 29 30 31 32 33 35 36 37 38 39 40 41 42 43 44 45 45 46 47 47 48 48 49
19 19 19 21 22 22 22 22 23 24 24 24 25 26 27 28 28 28 28 29 30 31 32 34 35 36 37 38 39 40 42 43 43 44 45 45 45 46 46 46 47 47 48
19 19 19 20 20 21 22 22 23 24 24 25 26 28 28 29 29 28 29 30 31 33 34 35 36 37 38 39 40 42 43 43 43 44 44 45 45 46 46 46 46 47 48
19 20 20 20 20 20 20 21 22 23 24 25 26 27 28 29 29 29 30 31 32 34 34 35 37 38 39 40 41 42 42 42 43 44 45 45 46 46 47 47 47 47 47
18 19 19 19 20 20 21 22 23 23 24 25 26 27 27 28 29 30 31 32 33 34 35 35 37 38 39 40 41 41 42 43 43 44 44 44 45 45 45 45 45 46 46
19 19 19 20 21 22 22 22 23 24 25 26 26 27 27 28 29 30 31 32 32 34 35 36 38 38 39 40 40 41 42 42 42 43 43 44 44 44 44 43 43 44 44
19 20 21 21 22 22 23 23 24 25 26 26 27 27 28 28 29 30 31 32 33 34 36 37 38 39 40 41 41 42 42 42 42 42 43 43 43 43 43 42 42 42 42
Wind_Direction
254 254 252 250 248 246 246 247 246 249 251 246 242 242 241 244 249 251 254 257 256 256 257 259 265 267 266 262 258 259 261 263 264 266 269 271 273 276 274 272 273 272 274
250 249 251 249 249 249 248 248 248 248 249 248 246 243 241 245 250 253 254 255 256 256 258 260 264 266 265 261 260 260 262 264 265 268 269 269 271 274 274 274 273 273 274
250 249 252 256 253 250 247 248 248 250 251 249 251 248 245 248 251 254 255 254 254 256 258 259 263 265 265 263 263 263 265 267 267 267 268 269 270 271 271 273 273 274 275
257 255 257 257 253 247 246 248 248 251 252 251 252 252 251 252 253 254 256 255 255 256 259 260 262 264 265 265 266 266 267 270 269 267 266 269 270 270 270 273 273 276 277
259 257 259 260 258 253 250 248 249 252 252 251 251 252 254 256 256 255 256 256 257 258 260 260 260 264 266 266 268 269 270 270 270 269 268 268 270 270 271 273 274 275 278
258 256 258 261 260 257 254 251 251 253 254 254 250 252 255 257 256 254 254 255 258 258 263 264 264 266 268 268 271 273 273 272 272 271 270 269 270 270 272 272 273 275 278
257 256 259 260 259 259 258 258 259 258 259 256 252 252 253 253 253 253 252 255 260 261 264 265 266 266 268 270 272 274 276 274 274 276 273 270 270 272 273 274 276 277 278
262 260 258 258 260 260 257 256 258 256 260 258 254 254 255 253 254 254 253 256 259 262 264 265 266 267 270 272 273 274 276 275 276 276 275 273 274 274 275 276 278 281 282
265 266 261 259 260 259 257 257 258 262 262 257 255 255 256 256 254 253 257 258 261 262 264 266 269 271 272 271 272 275 278 277 278 277 275 275 276 277 278 279 281 282 282
263 263 262 261 260 259 258 260 262 266 261 257 257 259 258 257 256 257 259 260 261 263 265 268 270 272 272 272 273 275 277 277 277 277 278 278 278 279 280 280 282 282 283
262 263 264 263 262 262 260 262 264 266 261 259 260 261 260 259 259 260 261 262 264 266 268 270 270 271 271 272 274 276 276 276 277 278 279 280 280 280 280 281 282 282 283
263 265 265 262 263 263 265 267 269 266 263 265 266 265 264 263 264 265 264 265 266 268 270 271 271 272 273 275 276 277 279 279 280 280 281 281 281 281 282 283 283 283 284
264 264 262 262 264 265 266 268 268 266 266 266 267 268 269 270 270 269 269 269 268 269 270 271 273 274 275 277 278 279 280 280 280 281 281 282 283 283 284 285 283 283 284
266 264 263 265 264 265 267 269 269 270 269 267 267 269 271 272 273 273 272 272 272 273 273 275 274 275 275 277 278 279 281 282 282 282 283 284 284 283 284 284 284 284 285
265 264 265 264 262 264 266 269 271 272 273 270 270 271 273 274 276 277 277 277 275 275 276 276 276 276 277 279 280 281 283 283 283 284 285 286 286 285 285 285 285 285 285
266 264 264 263 264 267 269 271 272 273 273 272 271 271 273 275 276 277 276 275 275 276 277 277 278 278 279 280 281 282 283 284 284 285 286 286 286 286 286 286 286 286 286
269 269 266 266 268 269 271 273 274 274 274 274 274 273 274 275 276 277 278 279 279 279 279 279 280 280 282 283 283 284 285 286 287 287 288 287 287 287 287 287 288 288 288
272 272 269 268 268 269 271 273 275 275 276 276 275 275 276 278 279 282 282 280 280 280 281 282 283 284 284 285 286 286 287 288 289 289 290 289 289 289 289 288 288 288 288
273 272 271 268 269 270 272 274 276 277 278 278 277 278 279 279 280 282 283 283 283 283 283 284 285 286 287 287 288 288 289 290 290 290 290 290 290 291 290 290 289 288 288
276 276 275 270 269 270 272 273 277 279 279 279 280 279 279 280 282 284 286 286 286 286 286 287 288 289 289 290 291 291 292 292 292 292 292 292 292 292 292 291 289 289 288
276 277 277 276 276 274 273 274 276 277 279 279 278 279 280 281 282 285 286 287 287 288 288 290 290 290 291 292 293 294 294 294 294 295 295 294 294 293 292 292 290 289 289
277 280 281 283 281 278 277 277 278 278 278 279 278 278 280 282 283 285 287 288 288 289 290 291 292 292 293 293 294 295 295 296 295 296 296 296 296 295 294 293 293 292 291
278 281 283 284 283 280 280 281 282 282 280 280 279 280 282 284 286 288 289 290 290 291 292 293 293 294 294 296 297 297 297 297 297 297 298 299 298 298 296 295 294 294 293
282 283 285 284 286 286 286 286 286 287 286 283 283 286 289 289 289 291 293 294 295 295 294 294 295 296 297 297 298 298 299 299 299 300 300 299 299 299 298 297 296 295 294
283 284 286 287 289 290 290 290 288 287 287 286 288 289 290 290 291 293 295 297 297 296 296 296 298 298 298 298 299 299 300 300 300 300 300 300 300 300 300 299 299 298 296
283 285 287 288 290 292 293 293 292 290 291 291 292 292 292 293 295 296 297 297 298 299 299 299 300 300 300 301 302 302 302 302 302 302 302 302 302 302 301 301 301 301 299
Height
5860 5860 5860 5860 5861 5861 5862 5862 5863 5863 5864 5864 5865 5866 5866 5867 5868 5868 5869 5869 5869 5869 5869 5869 5869 5869 5869 5869 5869 5869 5869 5869 5869 5869 5868 5868 5867 5866 5865 5864 5863 5862 5861
5856 5856 5856 5856 5857 5858 5859 5859 5860 5860 5861 5861 5862 5862 5863 5864 5864 5865 5865 5865 5865 5866 5866 5866 5866 5865 5865 5865 5865 5865 5865 5865 5865 5864 5864 5864 5863 5862 5862 5861 5860 5859 5858
5853 5853 5854 5854 5854 5855 5856 5856 5857 5857 5857 5858 5858 5859 5859 5860 5860 5861 5861 5862 5862 5862 5862 5862 5862 5862 5862 5862 5861 5861 5861 5861 5860 5860 5859 5859 5859 5858 5857 5856 5855 5854 5853
5850 5850 5851 5851 5851 5851 5852 5852 5853 5853 5854 5854 5854 5855 5855 5855 5856 5856 5857 5857 5857 5858 5858 5858 5858 5857 5858 5858 5857 5857 5856 5856 5855 5855 5854 5854 5854 5853 5852 5852 5851 5850 5849
5847 5847 5847 5848 5848 5848 5848 5848 5849 5850 5850 5850 5850 5851 5851 5851 5851 5852 5853 5853 5853 5853 5853 5853 5853 5853 5853 5853 5853 5852 5851 5851 5850 5850 5849 5849 5848 5848 5847 5846 5846 5845 5844
5843 5843 5844 5844 5844 5843 5844 5844 5845 5845 5845 5845 5846 5846 5847 5847 5847 5848 5848 5848 5849 5849 5849 5849 5849 5849 5848 5848 5848 5847 5846 5846 5845 5844 5844 5843 5843 5842 5841 5841 5840 5839 5838
5839 5839 5839 5840 5839 5839 5840 5840 5840 5841 5841 5841 5841 5841 5842 5842 5842 5843 5843 5844 5844 5844 5844 5844 5844 5844 5843 5843 5843 5842 5841 5840 5840 5839 5838 5837 5836 5836 5835 5834 5833 5832 5830
5834 5835 5835 5835 5835 5835 5835 5836 5836 5836 5837 5837 5837 5837 5837 5837 5838 5838 5838 5839 5839 5839 5839 5839 5839 5838 5838 5838 5837 5837 5836 5835 5834 5833 5832 5831 5830 5829 5828 5827 5826 5825 5823
5830 5830 5830 5830 5831 5831 5831 5831 5832 5832 5832 5832 5832 5832 5833 5833 5833 5833 5833 5833 5833 5833 5833 5833 5833 5832 5832 5831 5831 5830 5830 5829 5827 5826 5825 5824 5823 5822 5821 5820 5818 5817 5815
5826 5826 5826 5826 5826 5827 5827 5827 5827 5827 5827 5827 5827 5827 5827 5827 5828 5828 5828 5828 5828 5828 5827 5827 5827 5826 5825 5824 5824 5823 5823 5821 5820 5819 5818 5817 5816 5814 5813 5811 5809 5808 5806
5822 5822 5822 5822 5822 5822 5823 5823 5823 5822 5822 5822 5822 5822 5822 5822 5822 5822 5822 5822 5822 5822 5821 5821 5820 5819 5818 5818 5817 5816 5815 5814 5813 5812 5810 5809 5807 5805 5804 5802 5800 5798 5796
5817 5817 5817 5817 5818 5818 5818 5818 5818 5817 5817 5817 5817 5817 5817 5817 5817 5817 5816 5816 5816 5815 5815 5814 5813 5813 5812 5811 5810 5809 5808 5806 5805 5803 5801 5800 5798 5796 5794 5791 5789 5787 5784
5812 5813 5813 5813 5813 5813 5813 5813 5813 5813 5813 5813 5813 5812 5812 5812 5811 5811 5810 5810 5809 5809 5808 5807 5807 5806 5805 5804 5803 5801 5800 5798 5796 5794 5792 5790 5788 5785 5783 5780 5778 5775 5772
5807 5808 5808 5808 5808 5808 5808 5808 5808 5808 5808 5808 5807 5807 5807 5806 5806 5805 5804 5803 5803 5802 5801 5800 5800 5799 5798 5797 5795 5793 5791 5789 5787 5784 5782 5779 5777 5774 5772 5769 5766 5763 5761
5802 5803 5803 5802 5802 5802 5803 5803 5803 5803 5802 5802 5802 5802 5801 5800 5800 5799 5798 5797 5796 5795 5794 5793 5792 5791 5789 5788 5786 5784 5782 5779 5777 5774 5771 5769 5766 5763 5759 5756 5753 5750 5747
5796 5797 5796 5796 5797 5797 5797 5797 5797 5797 5796 5796 5796 5795 5795 5794 5793 5792 5791 5789 5788 5787 5786 5785 5783 5782 5780 5778 5776 5774 5771 5768 5766 5763 5760 5757 5754 5750 5747 5743 5740 5736 5733
5791 5791 5791 5791 5791 5791 5791 5791 5791 5791 5790 5790 5789 5788 5787 5786 5785 5784 5783 5782 5780 5779 5778 5776 5774 5772 5770 5768 5766 5763 5760 5757 5754 5751 5747 5744 5741 5737 5734 5730 5726 5722 5718
5785 5785 5785 5785 5785 5785 5785 5785 5785 5784 5784 5783 5782 5781 5780 5779 5778 5776 5775 5774 5772 5771 5769 5767 5765 5763 5760 5758 5755 5752 5749 5745 5742 5738 5735 5731 5727 5724 5720 5716 5711 5708 5704
5779 5779 5779 5779 5779 5779 5779 5778 5778 5778 5777 5776 5775 5774 5773 5772 5770 5769 5767 5765 5763 5762 5760 5757 5755 5753 5750 5747 5744 5740 5737 5733 5730 5726 5722 5718 5714 5710 5705 5701 5697 5693 5689
5774 5773 5772 5772 5772 5772 5772 5772 5771 5771 5770 5769 5768 5767 5766 5765 5763 5761 5759 5757 5755 5753 5751 5748 5745 5742 5739 5736 5732 5729 5725 5721 5717 5713 5709 5704 5700 5696 5691 5687 5682 5678 5673
5768 5768 5767 5766 5766 5765 5765 5765 5764 5764 5763 5762 5761 5759 5758 5757 5755 5753 5751 5749 5746 5744 5741 5738 5735 5732 5728 5725 5721 5717 5713 5709 5705 5700 5695 5691 5686 5681 5677 5672 5667 5663 5658
5763 5762 5761 5761 5759 5759 5758 5758 5757 5756 5755 5754 5753 5751 5750 5748 5746 5744 5742 5739 5737 5734 5731 5728 5725 5721 5717 5713 5709 5705 5701 5696 5692 5687 5682 5677 5672 5667 5663 5658 5653 5648 5644
5756 5756 5755 5754 5753 5752 5751 5750 5750 5748 5747 5746 5744 5743 5741 5739 5737 5735 5732 5730 5727 5724 5720 5717 5713 5709 5706 5702 5697 5693 5689 5684 5679 5674 5669 5664 5659 5654 5648 5643 5638 5633 5629
5750 5750 5749 5748 5747 5746 5745 5743 5742 5741 5739 5738 5736 5735 5733 5730 5728 5725 5723 5720 5716 5713 5709 5706 5702 5698 5694 5690 5686 5681 5676 5671 5666 5661 5656 5651 5645 5640 5634 5629 5624 5619 5614
5745 5744 5743 5742 5741 5740 5738 5737 5735 5733 5732 5730 5728 5726 5724 5722 5719 5717 5713 5710 5707 5703 5699 5695 5691 5687 5683 5678 5674 5669 5664 5659 5654 5648 5643 5638 5632 5627 5621 5616 5610 5605 5600
5739 5738 5737 5736 5734 5733 5731 5730 5728 5726 5724 5722 5720 5718 5715 5713 5710 5707 5704 5701 5697 5693 5689 5685 5681 5676 5672 5667 5662 5657 5652 5647 5641 5636 5630 5625 5619 5614 5608 5603 5597 5592 5587